FLOCK 4Y 2

导读

FLOCK 4Y 2是美国Planet公司“鸽群”(Flock)星座中SuperDove系列的遥感卫星,于2023年1月3日发射,属于FLOCK-4y批次36颗卫星中的一颗。该卫星配备八个光谱波段,属于高分辨率商业遥感卫星,主要为农业、林业等多领域提供高质量对地观测影像数据,补充Planet在轨卫星星座的观测容量,助力用户通过精准遥感数据支撑行业决策,是全球商业遥感星座组网的重要组成部分。

Basic Information
目录编号:
55074
目录名称:
FLOCK 4Y 2
国际标识:
2023-001BT
轨道中心:
EARTH
卫星名称:
FLOCK 4Y 2
卫星全名:
--
卫星状态:
已陨落 最后检测时间 2025-09-24
发射日期:
2023-01-03 UTC
国别 :
美国 (US)
星等 :
--
Orbit Information
数据来源 国际轨道数据
星历时间: 2025-09-24T14:01:57+0800
轨道信息已过期306天
半长轴: 6567.571km
偏心率: 0.0013578
轨道倾角: 97.334°
近地点辐角 274.697°
升交点赤经 345.933°
平近点角 85.278°
近地点: 180.518km
远地点: 198.354km
周期: 88.281分钟
每日圈数: 16.311567
Detailed Information
使用方式:
暂无